Weather History for Kingman, AZ

Change the Weather History Date:

Wednesday, July 17, 2013

  Actual Average Record
Temperature  
Mean Temperature 85 °F 84 °F  
Max Temperature 97 °F 98 °F 113 °F (2005)
Min Temperature 72 °F 71 °F 50 °F (1907)
Degree Days  
Heating Degree Days 0 0  
Month to date heating degree days 0 0  
Since 1 June heating degree days 0 3  
Since 1 July heating degree days 0 0  
Cooling Degree Days 20 19  
Month to date cooling degree days 372 309  
Year to date cooling degree days 1094 892  
Since 1 June cooling degree days 872 694  
Growing Degree Days 34 (Base 50)    
Moisture  
Dew Point 53 °F    
Average Humidity 39    
Maximum Humidity 57    
Minimum Humidity 20    
Precipitation  
Precipitation 0.00 in 0.03 in 0.38 in (1967)
Month to date precipitation 0.08 0.33  
Year to date precipitation 1.27 3.88  
Sea Level Pressure  
Sea Level Pressure 29.86 in    
Wind  
Wind Speed 9 mph (SSE)    
Max Wind Speed 15 mph    
Max Gust Speed 21 mph    
Visibility 10 miles    
Events      
T = Trace of Precipitation, MM = Missing Value Source: NWS Daily Summary

Daily Weather History Graph

Daily Weather History Graph

Search for Another Location

Airport:

Trip Planner

Search our weather history database for the weather conditions in past years. The results will help you decide how hot, cold, wet, or windy it might be!

Date:

Astronomy

Jul. 17, 2013 Rise Set
Actual Time 5:33 AM MST 7:49 PM MST
Civil Twilight 5:05 AM MST 8:18 PM MST
Nautical Twilight 4:29 AM MST 8:53 PM MST
Astronomical Twilight 3:50 AM MST 9:32 PM MST
Moon 2:45 PM MST (7/17) 12:39 AM MST (7/17)
Length of Visible Light 15h 13m
Length of Day
14h 15m
Waxing Gibbous, 68% of the Moon is Illuminated
Jul 17
Waxing Gibbous
Jul 22
Full
Jul 29
Last Quarter
Aug 6
New
Aug 14
First Quarter

Hourly Weather History & Observations

Time (MST) Temp. Heat Index Dew Point Humidity Pressure Visibility Wind Dir Wind Speed Gust Speed Precip Events Conditions
12:51 AM 77.0 °F - 57.0 °F 50% 29.83 in 10.0 mi ESE 11.5 mph - N/A   Clear
1:51 AM 75.0 °F - 57.0 °F 53% 29.83 in 10.0 mi SE 11.5 mph - N/A   Clear
2:51 AM 75.0 °F - 57.0 °F 53% 29.84 in 10.0 mi SE 9.2 mph - N/A   Clear
3:51 AM 73.0 °F - 57.0 °F 57% 29.84 in 10.0 mi SE 11.5 mph - N/A   Clear
4:51 AM 73.0 °F - 57.9 °F 59% 29.86 in 10.0 mi SE 11.5 mph - N/A   Clear
5:51 AM 73.0 °F - 57.9 °F 59% 29.88 in 10.0 mi SE 11.5 mph - N/A   Clear
6:51 AM 77.0 °F - 57.9 °F 52% 29.91 in 10.0 mi ESE 11.5 mph - N/A   Clear
7:51 AM 82.0 °F 81.7 °F 57.0 °F 42% 29.92 in 10.0 mi East 5.8 mph - N/A   Clear
8:51 AM 84.9 °F 83.6 °F 55.0 °F 36% 29.93 in 10.0 mi Calm Calm - N/A   Clear
9:51 AM 88.0 °F 86.1 °F 55.0 °F 32% 29.93 in 10.0 mi East 4.6 mph - N/A   Clear
10:51 AM 89.1 °F 87.3 °F 55.9 °F 32% 29.93 in 10.0 mi ESE 12.7 mph 19.6 mph N/A   Clear
11:51 AM 90.0 °F 87.7 °F 54.0 °F 29% 29.92 in 10.0 mi ESE 10.4 mph 17.3 mph N/A   Partly Cloudy
12:51 PM 93.9 °F - 50.0 °F 22% 29.90 in 10.0 mi Variable 6.9 mph - N/A   Clear
1:51 PM 95.0 °F - 48.9 °F 21% 29.87 in 10.0 mi West 8.1 mph - N/A   Clear
2:51 PM 95.0 °F - 48.9 °F 21% 29.86 in 10.0 mi Calm Calm - N/A   Clear
3:51 PM 95.0 °F - 50.0 °F 22% 29.84 in 10.0 mi SW 13.8 mph 19.6 mph N/A   Scattered Clouds
4:51 PM 96.1 °F - 48.0 °F 19% 29.81 in 10.0 mi SW 8.1 mph - N/A   Clear
5:51 PM 95.0 °F - 48.0 °F 20% 29.81 in 10.0 mi SSW 10.4 mph - N/A   Clear
6:51 PM 93.9 °F - 48.0 °F 21% 29.80 in 10.0 mi SSW 10.4 mph - N/A   Clear
7:51 PM 91.0 °F - 48.9 °F 23% 29.80 in 10.0 mi SW 11.5 mph - N/A   Clear
8:51 PM 88.0 °F - 50.0 °F 27% 29.82 in 10.0 mi SSW 9.2 mph - N/A   Clear
9:51 PM 84.9 °F - 50.0 °F 30% 29.83 in 10.0 mi South 8.1 mph - N/A   Clear
10:51 PM 82.0 °F - 50.0 °F 33% 29.83 in 10.0 mi ESE 3.5 mph - N/A   Clear
11:51 PM 82.0 °F 81.3 °F 54.0 °F 38% 29.84 in 10.0 mi SE 12.7 mph - N/A   Clear